Flag for Liechtenstein Weather past 2 weeks in Vaduz, Liechtenstein

Now
86 °F

Warm.


Feels Like: 88 °F
Forecast: 67 / 93 °F
Wind: 5 mph from Northwest

Location: Vaduz

Current Time: Aug 29, 2015 at 6:58:36 PM

Latest Report: Aug 29, 2015 at 6:00 PM


Visibility: N/A

Pressure: 30.01 "Hg

Humidity: 50%

Dew point: 66 °F

Location of VaduzLocation

Historic Weather in Vaduz — Graph

°F

Vaduz temperature yesterday

Maximum temperature yesterday: 86 °F (at 4:00 PM)
Minimum temperature yesterday: 66 °F (at 10:00 PM)
Average temperature yesterday: 76 °F

Past Weeks' High & Low Weather Summary

 TemperatureHumidityPressure
High87 °F (Aug 29, 5:00 PM)97% (Aug 20, 2:00 AM)30.28 "Hg (Aug 20, 2:00 AM)
Low54 °F (Aug 22, 12:00 AM)31% (Aug 27, 2:00 PM)29.67 "Hg (Aug 24, 11:00 AM)
Average66 °F72%30.00 "Hg
* Reported Aug 14 5:00 PM — Aug 29 5:00 PM, Vaduz, Weather by CustomWeather, © 2015

Note: Actual official high and low records may vary slightly from our data, if they occured in-between our weather recording intervals... More about our weather records

Advertising

Vaduz weather history for previous 24 hours

 ConditionsComfort  
Time TempWeatherWind HumidityBarometerVisibility
5:00 PM
Sat, Aug 29
87 °FScattered clouds.7 mph48%30.02 "Hg6 mi
4:00 PM86 °FWarm.8 mph48%30.03 "HgN/A
3:00 PM85 °FWarm.7 mph50%30.06 "HgN/A
2:00 PM84 °FHaze.7 mph49%30.09 "Hg6 mi
1:00 PM83 °FWarm.5 mph51%30.10 "HgN/A
12:00 PM81 °FWarm.3 mph50%30.12 "HgN/A
11:00 AM79 °FHaze.2 mph50%30.14 "Hg6 mi
10:00 AM76 °FMild.5 mph53%30.15 "HgN/A
9:00 AM72 °FMild.6 mph57%30.16 "HgN/A
8:00 AM70 °FScattered clouds.5 mph61%30.17 "Hg5 mi
7:00 AM70 °FMild.5 mph60%30.16 "HgN/A
6:00 AM70 °FMild.6 mph60%30.16 "HgN/A
4:00 AM70 °FMild.6 mph64%30.16 "HgN/A
3:00 AM68 °FMild.3 mph71%30.16 "HgN/A
2:00 AM72 °FClear.5 mph60%30.15 "Hg19 mi
1:00 AM72 °FMild.3 mph62%30.14 "HgN/A
10:00 PM
Fri, Aug 28
66 °FMild.1 mph91%30.13 "HgN/A
9:00 PM68 °FMild.1 mph86%30.10 "HgN/A
8:00 PM72 °FMild.No wind74%30.07 "HgN/A
7:00 PM81 °FWarm.3 mph48%30.03 "HgN/A
6:00 PM84 °FWarm.7 mph43%30.01 "HgN/A
Weather by CustomWeather, © 2015

See weather overviewHow to use our weather pages